Regional Weather Roundup
Issued by NWS Midland/Odessa, TX

Skip options and go directly to product.
Home | Oldest Version | Previous Version | Current Version | All | Text Only | Save Text | Print | Product List | Glossary Off

Skip product version selection by date and time.   

494
ASUS44 KMAF 181610
RWRMAF
MIDLAND AREA WEATHER ROUNDUP
NATIONAL WEATHER SERVICE MIDLAND TX
1100 AM CDT SAT APR 18 2015

...IN SOUTHWEST TEXAS AND SOUTHEAST NEW MEXICO...

CITY           SKY/WX    TMP DP  RH WIND       PRES   REMARKS
ALPINE         SUNNY     66  35  30 CALM      30.09F
ANDREWS        FAIR      65  23  19 S5        29.98S
ARTESIA        SUNNY     63  25  23 S7        29.99F
BIG SPRING     MOSUNNY   65  55  70 W12       29.98R
CARLSBAD       SUNNY     66  23  19 VRB5      29.98S
DRYDEN           N/A     68  60  75 VRB5      29.95S
FORT STOCKTON  SUNNY     71  28  20 SW5       29.99R
GUAD PASS      SUNNY     59  14  17 SW20      30.06S
HOBBS          SUNNY     61  30  31 CALM      29.99S
MARFA          SUNNY     64  27  24 S3        30.08S
MIDLAND AIRPK  SUNNY     70  32  24 SW7       29.96F
MIDLAND INTL   SUNNY     71  35  26 W8        29.96S
ODESSA         SUNNY     68  50  52 SW12      29.97F
PECOS          MOSUNNY   65  28  25 NW9       29.99R
PRESIDIO       FAIR      71  31  23 NW3       30.00S
SEMINOLE       SUNNY     65  29  26 SE5       29.98R
SNYDER         MOSUNNY  N/A N/A N/A SW12      29.95R
WINK           MOSUNNY   70  20  15 W6        29.97R
$$
...OTHER STATIONS IN TEXAS...

CITY           SKY/WX    TMP DP  RH WIND       PRES   REMARKS
ABILENE        MOSUNNY   68  60  75 S10       29.93S
AMARILLO       SUNNY     66  26  22 SW9       29.92F
AUSTIN         CLOUDY    68  65  90 CALM      29.93R
BROWNSVILLE    CLOUDY    75  74  96 SE13      29.84F FOG
CORPUS CHRISTI CLOUDY    72  68  87 NE10      29.87S
DALLAS FTW     MOSUNNY   72  63  73 VRB5      29.90S
DEL RIO        MOSUNNY   72  63  73 W5        29.90F
EL PASO        MOSUNNY   64  11  12 W14       30.03S
HOUSTON INT    CLOUDY    73  69  87 E6        29.91R
LUBBOCK        MOSUNNY   66  26  22 NE3       29.95R
SAN ANGELO     SUNNY     70  61  73 SW7       29.93S
SAN ANTONIO    CLOUDY    71  66  84 N12       29.92F
WACO           CLOUDY    68  63  84 CALM      29.92S
WICHITA FALLS  NOT AVBL
$$
...OTHER LOCATIONS IN NEW MEXICO...

CITY           SKY/WX    TMP DP  RH WIND       PRES   REMARKS
ALAMAGORDO     MOSUNNY   59  19  21 SE7       30.03S
ALBUQUERQUE    PTSUNNY   48  30  49 NW8       30.03R
CANNON AFB     NOT AVBL
CLOVIS         SUNNY     61  27  27 SW13      29.95F
HOLLOMAN AFB   MOSUNNY   60  17  18 S6        30.01S
ROSWELL        SUNNY     61  27  27 S8        29.97F
RUIDOSO        MOSUNNY   50  23  34 W14G29    30.05S
SANTA FE       PTSUNNY   35  30  82 N6        30.01S WCI  30
TRUTH OR CONSE SUNNY     57  18  21 SE10      30.01F
TUCUMCARI      CLOUDY    54  27  35 W7        29.93F
$$

USA.gov is the U.S. government's official web portal to all federal, state and local government web resources and services.